星链-37613(STARLINK-37613)

导读

STARLINK-37613(NORAD编号69211)是SpaceX星链(Starlink)互联网卫星星座中的一员,作为低轨卫星,它主要服务于全球覆盖的高速卫星互联网项目,为地面偏远地区等场景提供宽带网络接入服务。星链星座整体通过大规模低轨卫星组网,降低通信延迟,不过目前公开信息中关于该编号卫星的特殊任务未有更多披露,它延续星链卫星标准设计,运行在近地轨道,参与构建全球卫星互联网通信基础设施,支撑星链系统的服务覆盖能力。

Basic Information
目录编号:
69211
目录名称:
STARLINK-37613
国际标识:
2026-115A
轨道中心:
EARTH
卫星名称:
星链-37613
卫星全名:
星链-37613(STARLINK-37613)
卫星状态:
在轨 (已飞行101 天)
发射日期:
2026-05-26 UTC
国别 :
美国 (US)
星等 :
--
Orbit Information
数据来源 国际轨道数据
星历时间: 2026-09-04T01:14:19+0800
12小时前
查看轨道信息
半长轴: 6843.653km
偏心率: 0.0001312
轨道倾角: 97.284°
近地点辐角 96.557°
升交点赤经 263.125°
平近点角 263.582°
近地点: 464.618km
远地点: 466.414km
周期: 93.906分钟
每日圈数: 15.334543
Detailed Information
固有亮度:
5
最大亮度:
2.5
卫星平台:
Starlink V1.0
覆盖范围:
全球
运营商:
太空探索技术公司
运营商所在国:
美国
制造商(研发单位):
太空探索技术公司
制造商所在国:
美国
使用方式:
暂无
Satellite Introduction
Starlink 计划是 SpaceX 推出的全球卫星互联网项目,通过发射低轨道卫星,为全球尤其是偏远地区提供高速、低延迟的互联网服务。自 2019 年起,Starlink 已部署数千颗卫星,旨在缩小全球数字鸿沟,推动互联网普及。该项目还为军事、航空等行业提供通信支持,带来广泛经济效益。
2D Orbit Map
3D Orbit Map
Orbit Altitude Analysis Chart
Orbit Inclination Analysis Chart
Orbit Comprehensive Analysis Chart
View Comprehensive Chart
Conjunction Data List
Event ID Objects TCA Miss Dist (km) Collision Risk Probability Collision Risk Index (CRI) Action
CDM_260905-080606-538406-921121
2026-09-05T
08:06:31+0000
0.619 km
远距离
1.199946E-4 高风险 0.77
CDM_260905-150906-538406-921121
2026-09-05T
15:09:19+0000
1.170 km
极远距离
1.559082E-5 中风险 0.59
CDM_260905-094006-538406-921121
2026-09-05T
09:40:28+0000
1.354 km
极远距离
9.383551E-6 低风险 0.54
CDM_260905-055905-674806-921121
OBJECT F (56748)
2026-09-05T
05:59:41+0000
2.078 km
极远距离
2.637531E-6 低风险 0.43
CDM_260905-133506-538406-921121
2026-09-05T
13:35:21+0000
2.148 km
极远距离
2.386299E-6 低风险 0.43
CDM_260905-063206-538406-921121
2026-09-05T
06:32:33+0000
2.358 km
极远距离
1.946583E-6 低风险 0.41
CDM_260904-150305-925606-921122
2026-09-04T
15:03:48+0000
2.882 km
极远距离
1.399402E-6 低风险 0.38
CDM_260904-234105-199606-921121
2026-09-04T
23:41:24+0000
2.628 km
极远距离
9.684312E-7 极低风险 0.35
CDM_260905-020405-977006-921121
2026-09-05T
02:04:53+0000
2.827 km
极远距离
8.529223E-7 极低风险 0.34